Погода в Коротково

Россия / Забайкальский край     50°26′37″N   108°58′05″E
темп.,
°C
ветер,
м/с
пор.,
м/с
влажн.,
%
обл.,
%
осадки,
мм/ч
давл.,
гПа
погр.,
м
4 марта, чт
чт400:00−11с279388 0.1 1015405
03:00−14с369194 0.2 1018275
06:00−19сз1295100 0.0 102320
09:00−21зсз238999 0.0 102867
12:00−15зсз486116 0.0 10291140
15:00−14зсз610658 0.0 10301335
18:00−15зсз597328 0.0 10321189
21:00−22зсз229032 0.0 103736
5 марта, пт
пт500:00−24з11900 0.0 104020
03:00−25юз11890 0.0 104220
06:00−26юв11980 0.0 104220
09:00−25вюв129826 0.0 104340
12:00−16юв128543 0.0 1037220
15:00−10ююз257421 0.0 1032517
18:00−8юз14783 0.0 1029319
21:00−14в11912 0.0 103121
6 марта, сб
сб600:00−15юв119424 0.0 103022
03:00−16юв129029 0.0 102923
06:00−16юв128733 0.0 102826
09:00−14зсз118667 0.0 102923
12:00−8юз237449 0.0 1028376
15:00−4зюз257630 0.0 1027729
18:00−3з257640 0.0 1026589
21:00−11з118620 0.0 102921
7 марта, вс
вс700:00−13ююз11960 0.0 103022
03:00−14юв119615 0.0 103022
06:00−16юв11940 0.0 102921
09:00−15вюв12930 0.0 102931
12:00−7ююв12770 0.0 1024206
15:00−2юз13732 0.0 1022317
18:00−2юз128364 0.0 1020155
21:00−9ю018434 0.0 102421
8 марта, пн
пн800:00−10ююз11884 0.0 102621
03:00−12юз11922 0.0 102621
06:00−13юз119412 0.0 102721
09:00−13ю119541 0.0 102923
12:00−5ююз12791 0.0 1025190
15:00−1ююз13771 0.0 1023312
18:00−1юз13860 0.0 1022216
21:00−7ю11870 0.0 102421